Weather History for KELD - May, 2012

Change the Weather History Date:

Thursday, May 3, 2012

  Actual Average Record
Temperature  
Mean Temperature 76 °F 68 °F  
Max Temperature 84 °F 79 °F 93 °F (1952)
Min Temperature 68 °F 56 °F 37 °F (1960)
Degree Days  
Heating Degree Days 0 1  
Month to date heating degree days 0 4  
Since 1 July heating degree days 2252 2658  
Cooling Degree Days 11 4  
Month to date cooling degree days 32 12  
Year to date cooling degree days 189 111  
Growing Degree Days 25 (Base 50)    
Moisture  
Dew Point 70 °F    
Average Humidity 85    
Maximum Humidity 100    
Minimum Humidity 69    
Precipitation  
Precipitation 0.00 in 0.16 in 2.37 in (2009)
Month to date precipitation T 0.47  
Year to date precipitation 18.33 18.40  
Snow  
Snow 0.00 in - - ()
Month to date snowfall 0.0  
Since 1 July snowfall T  
Snow Depth 0.00 in    
Sea Level Pressure  
Sea Level Pressure 29.96 in    
Wind  
Wind Speed 4 mph (SSE)    
Max Wind Speed 12 mph    
Max Gust Speed 15 mph    
Visibility 9 miles    
Events      
T = Trace of Precipitation, MM = Missing Value Source: NWS Daily Summary

Daily Weather History Graph

Daily Weather History Graph

Search for Another Location

Airport or City:

Trip Planner

Search our weather history database for the weather conditions in past years. The results will help you decide how hot, cold, wet, or windy it might be!

Date:

Astronomy

May. 03, 2012 Rise Set
Actual Time 6:20 AM CDT 7:55 PM CDT
Civil Twilight 5:54 AM CDT 8:22 PM CDT
Nautical Twilight 5:22 AM CDT 8:54 PM CDT
Astronomical Twilight 4:49 AM CDT 9:27 PM CDT
Moon 5:26 PM CDT 4:17 AM CDT
Length of Visible Light 14h 27m
Length of Day
13h 34m
Waxing Gibbous, 91% of the Moon is Illuminated
May 3
Waxing Gibbous
May 5
Full
May 12
Last Quarter
May 20
New
May 28
First Quarter

Hourly Weather History & Observations

Time (CDT) Temp. Heat Index Dew Point Humidity Pressure Visibility Wind Dir Wind Speed Gust Speed Precip Events Conditions
12:53 AM 70.0 °F - 68.0 °F 93% 29.94 in 10.0 mi SE 4.6 mph - N/A   Overcast
1:53 AM 70.0 °F - 68.0 °F 93% 29.92 in 10.0 mi SSE 6.9 mph - N/A   Overcast
2:53 AM 70.0 °F - 66.9 °F 90% 29.92 in 10.0 mi SSE 6.9 mph - N/A   Mostly Cloudy
3:53 AM 69.1 °F - 68.0 °F 96% 29.93 in 10.0 mi ESE 4.6 mph - N/A   Overcast
4:53 AM 69.1 °F - 68.0 °F 96% 29.94 in 10.0 mi ESE 3.5 mph - N/A   Overcast
5:53 AM 68.0 °F - 68.0 °F 100% 29.94 in 9.0 mi ESE 5.8 mph - N/A   Overcast
6:24 AM 68.0 °F - 68.0 °F 100% 29.95 in 7.0 mi ESE 5.8 mph - N/A   Overcast
6:36 AM 68.0 °F - 68.0 °F 100% 29.95 in 9.0 mi ESE 5.8 mph - N/A   Overcast
6:53 AM 69.1 °F - 68.0 °F 96% 29.95 in 9.0 mi ESE 4.6 mph - N/A   Overcast
7:53 AM 70.0 °F - 69.1 °F 97% 29.96 in 10.0 mi SE 5.8 mph - N/A   Overcast
8:53 AM 71.1 °F - 69.1 °F 93% 29.99 in 7.0 mi SSE 8.1 mph - N/A   Overcast
9:53 AM 72.0 °F - 70.0 °F 93% 30.00 in 6.0 mi SSE 5.8 mph - N/A   Overcast
10:51 AM 73.4 °F - 69.8 °F 88% 30.01 in 10.0 mi SSE 8.1 mph - N/A   Overcast
10:53 AM 73.9 °F - 70.0 °F 87% 30.00 in 10.0 mi SSE 8.1 mph - N/A   Overcast
11:39 AM 75.2 °F - 69.8 °F 83% 30.01 in 10.0 mi SSW 8.1 mph - N/A   Overcast
11:53 AM 75.9 °F - 70.0 °F 82% 30.00 in 10.0 mi South 5.8 mph - N/A   Overcast
12:53 PM 77.0 °F - 70.0 °F 79% 30.00 in 10.0 mi SSW 4.6 mph - N/A   Overcast
1:53 PM 78.1 °F - 71.1 °F 79% 29.99 in 10.0 mi SSW 9.2 mph - N/A   Overcast
2:53 PM 79.0 °F - 71.1 °F 77% 29.98 in 10.0 mi SW 4.6 mph - N/A   Overcast
3:07 PM 80.6 °F 84.6 °F 71.6 °F 74% 29.98 in 10.0 mi Calm Calm - N/A   Overcast
3:31 PM 80.6 °F 84.6 °F 71.6 °F 74% 29.97 in 10.0 mi Calm Calm - N/A   Overcast
3:53 PM 81.0 °F 84.9 °F 71.1 °F 72% 29.96 in 10.0 mi Variable 3.5 mph - N/A   Scattered Clouds
4:14 PM 82.4 °F 87.2 °F 71.6 °F 70% 29.95 in 10.0 mi Calm Calm - N/A   Mostly Cloudy
4:22 PM 82.4 °F 87.2 °F 71.6 °F 70% 29.95 in 10.0 mi SSW 6.9 mph - N/A   Scattered Clouds
4:53 PM 82.9 °F 87.5 °F 71.1 °F 67% 29.94 in 10.0 mi SSE 5.8 mph - N/A   Clear
5:53 PM 82.9 °F 87.5 °F 71.1 °F 67% 29.93 in 10.0 mi WSW 3.5 mph - N/A   Mostly Cloudy
6:53 PM 82.9 °F 87.5 °F 71.1 °F 67% 29.93 in 10.0 mi Calm Calm - N/A   Partly Cloudy
7:53 PM 77.0 °F - 73.0 °F 88% 29.95 in 9.0 mi Calm Calm - N/A   Partly Cloudy
8:53 PM 75.0 °F - 73.0 °F 94% 29.96 in 8.0 mi Calm Calm - N/A   Clear
9:53 PM 73.0 °F - 72.0 °F 96% 29.96 in 7.0 mi Calm Calm - N/A   Clear
10:53 PM 71.1 °F - 71.1 °F 100% 29.97 in 5.0 mi Calm Calm - N/A   Clear
11:29 PM 69.8 °F - 69.8 °F 100% 29.98 in 1.8 mi Calm Calm - N/A   Clear
11:42 PM 69.8 °F - 69.8 °F 100% 29.99 in 4.0 mi Calm Calm - N/A   Clear
11:53 PM 69.1 °F - 69.1 °F 100% 29.98 in 5.0 mi Calm Calm - N/A   Clear